Change the Weather History Date:

Monday, March 11, 2013

  Actual Average Record
Temperature  
Mean Temperature 49 °F 42 °F  
Max Temperature 60 °F 55 °F 73 °F (2007)
Min Temperature 37 °F 29 °F 13 °F (1951)
Degree Days  
Heating Degree Days 16 23  
Month to date heating degree days 239 267  
Since 1 July heating degree days 4202 4794  
Cooling Degree Days 0 0  
Month to date cooling degree days 0 0  
Year to date cooling degree days 0 0  
Growing Degree Days 2 (Base 50)    
Moisture  
Dew Point 33 °F    
Average Humidity 56    
Maximum Humidity 76    
Minimum Humidity 36    
Precipitation  
Precipitation 0.00 in 0.02 in 0.35 in (1971)
Month to date precipitation 0.50 0.27  
Year to date precipitation 0.63 2.19  
Snow  
Snow 0.00 in 0.00 in 1.30 in (1971)
Month to date snowfall T 0.4  
Year to date snowfall 1.1 8.3  
Since 1 July snowfall 15.3 21.3  
Snow Depth 0.00 in    
Sea Level Pressure  
Sea Level Pressure 30.28 in    
Wind  
Wind Speed 4 mph (South)    
Max Wind Speed 15 mph    
Max Gust Speed 21 mph    
Visibility 10 miles    
Events      
T = Trace of Precipitation, MM = Missing Value Source: NWS Daily Summary

Daily Weather History Graph

Daily Weather History Graph

Search for Another Location

Airport or City:

Trip Planner

Search our weather history database for the weather conditions in past years. The results will help you decide how hot, cold, wet, or windy it might be!

Date:

Astronomy

Mar. 11, 2013 Rise Set
Actual Time 7:22 AM PDT 7:02 PM PDT
Civil Twilight 6:51 AM PDT 7:32 PM PDT
Nautical Twilight 6:17 AM PDT 8:08 PM PDT
Astronomical Twilight 5:41 AM PDT 8:43 PM PDT
Moon 6:56 AM PDT (3/11) 7:24 PM PDT (3/11)
Length of Visible Light 12h 40m
Length of Day
11h 40m
Waning Crescent, 0% of the Moon is Illuminated
Mar 11
Waning Crescent
Mar 11
New
Mar 19
First Quarter
Mar 27
Full
Apr 2
Last Quarter

Hourly Weather History & Observations

Time (PDT) Temp. Windchill Dew Point Humidity Pressure Visibility Wind Dir Wind Speed Gust Speed Precip Events Conditions
12:53 AM 41.0 °F 37.1 °F 32.0 °F 70% 30.33 in 10.0 mi WSW 5.8 mph - N/A   Clear
1:53 AM 41.0 °F 38.0 °F 32.0 °F 70% 30.34 in 10.0 mi WSW 4.6 mph - N/A   Clear
2:53 AM 37.0 °F - 30.9 °F 79% 30.34 in 10.0 mi Calm Calm - N/A   Clear
3:53 AM 42.1 °F 37.7 °F 33.1 °F 70% 30.33 in 10.0 mi West 6.9 mph - N/A   Clear
4:53 AM 48.0 °F - 34.0 °F 58% 30.32 in 10.0 mi Variable 5.8 mph - N/A   Clear
5:53 AM 48.0 °F - 33.1 °F 56% 30.31 in 10.0 mi NNW 16.1 mph - N/A   Scattered Clouds
6:53 AM 46.0 °F 41.4 °F 33.1 °F 61% 30.32 in 10.0 mi NW 9.2 mph - N/A   Mostly Cloudy
7:53 AM 44.1 °F 40.1 °F 34.0 °F 68% 30.32 in 10.0 mi West 6.9 mph - N/A   Mostly Cloudy
8:53 AM 46.0 °F 43.9 °F 34.0 °F 63% 30.33 in 10.0 mi WSW 4.6 mph - N/A   Mostly Cloudy
9:53 AM 48.0 °F - 34.0 °F 58% 30.34 in 10.0 mi Calm Calm - N/A   Overcast
10:53 AM 50.0 °F - 33.1 °F 52% 30.34 in 10.0 mi NE 3.5 mph - N/A   Overcast
11:53 AM 53.1 °F - 32.0 °F 45% 30.34 in 10.0 mi Variable 3.5 mph - N/A   Mostly Cloudy
12:53 PM 54.0 °F - 30.9 °F 41% 30.32 in 10.0 mi East 4.6 mph - N/A   Partly Cloudy
1:53 PM 55.9 °F - 30.9 °F 39% 30.31 in 10.0 mi Calm Calm - N/A   Partly Cloudy
2:53 PM 57.9 °F - 32.0 °F 37% 30.28 in 10.0 mi Calm Calm - N/A   Clear
3:53 PM 59.0 °F - 32.0 °F 36% 30.25 in 10.0 mi Calm Calm - N/A   Clear
4:53 PM 57.9 °F - 35.1 °F 42% 30.24 in 10.0 mi South 6.9 mph - N/A   Partly Cloudy
5:53 PM 57.0 °F - 34.0 °F 42% 30.22 in 10.0 mi South 5.8 mph - N/A   Clear
6:53 PM 57.0 °F - 33.1 °F 40% 30.21 in 10.0 mi Calm Calm - N/A   Overcast
7:53 PM 55.0 °F - 33.1 °F 43% 30.22 in 10.0 mi East 3.5 mph - N/A   Overcast
8:53 PM 51.1 °F - 30.9 °F 46% 30.22 in 10.0 mi East 4.6 mph - N/A   Overcast
9:53 PM 48.9 °F - 32.0 °F 52% 30.22 in 10.0 mi East 4.6 mph - N/A   Overcast
10:53 PM 46.9 °F - 30.9 °F 54% 30.21 in 10.0 mi East 5.8 mph - N/A   Scattered Clouds
11:53 PM 46.0 °F 44.8 °F 32.0 °F 58% 30.19 in 10.0 mi Variable 3.5 mph - N/A   Partly Cloudy